Wichita, KS

8:54 PM CDT on July 25, 2016 (GMT -0500)
Wichita Eisenhower National Airport

Weather History for KICT - April, 2012

Change the Weather History Date:

Monday, April 30, 2012

  Actual Average Record
Temperature  
Mean Temperature 69 °F 61 °F  
Max Temperature 76 °F 72 °F 91 °F (1959)
Min Temperature 61 °F 50 °F 30 °F (1907)
Degree Days  
Heating Degree Days 0 5  
Month to date heating degree days 132 290  
Since 1 July heating degree days 3605 4508  
Cooling Degree Days 4 1  
Month to date cooling degree days 61 24  
Year to date cooling degree days 101 26  
Growing Degree Days 18 (Base 50)    
Moisture  
Dew Point 62 °F    
Average Humidity 82    
Maximum Humidity 100    
Minimum Humidity 64    
Precipitation  
Precipitation 0.96 in 0.11 in 2.26 in (1951)
Month to date precipitation 5.24 2.59  
Year to date precipitation 12.87 7.29  
Snow  
Snow 0.00 in 0.00 in 0.00 in (2007)
Month to date snowfall 0.0 0.2  
Since 1 July snowfall 3.0 14.9  
Snow Depth 0.00 in    
Sea Level Pressure  
Sea Level Pressure 29.92 in    
Wind  
Wind Speed 7 mph (East)    
Max Wind Speed 24 mph    
Max Gust Speed 28 mph    
Visibility 7 miles    
Events Rain , Thunderstorm    
T = Trace of Precipitation, MM = Missing Value Source: NWS Daily Summary

Daily Weather History Graph

Daily Weather History Graph

Search for Another Location

Airport or City:

Trip Planner

Search our weather history database for the weather conditions in past years. The results will help you decide how hot, cold, wet, or windy it might be!

Date:

Astronomy

Apr. 30, 2012 Rise Set
Actual Time 6:34 AM CDT 8:19 PM CDT
Civil Twilight 6:06 AM CDT 8:47 PM CDT
Nautical Twilight 5:32 AM CDT 9:21 PM CDT
Astronomical Twilight 4:56 AM CDT 9:58 PM CDT
Moon 2:24 PM CDT (4/30) 2:52 AM CDT (4/30)
Length of Visible Light 14h 41m
Length of Day
13h 44m
Waxing Gibbous, 64% of the Moon is Illuminated
Apr 30
Waxing Gibbous
May 5
Full
May 12
Last Quarter
May 20
New
May 28
First Quarter

Hourly Weather History & Observations

Time (CDT) Temp. Dew Point Humidity Pressure Visibility Wind Dir Wind Speed Gust Speed Precip Events Conditions
12:53 AM 62.1 °F 60.1 °F 93% 29.95 in 7.0 mi NE 8.1 mph - N/A Thunderstorm Thunderstorm
1:42 AM 62.6 °F 60.8 °F 94% 29.98 in 6.0 mi East 8.1 mph - 0.02 in Rain Light Rain
1:53 AM 62.1 °F 61.0 °F 96% 29.94 in 5.0 mi East 6.9 mph - 0.02 in Rain Light Rain
2:04 AM 62.6 °F 62.6 °F 100% 29.98 in 5.0 mi Calm Calm - 0.01 in Rain , Thunderstorm Light Thunderstorms and Rain
2:38 AM 62.6 °F 62.6 °F 100% 29.97 in 5.0 mi Calm Calm - 0.03 in Rain Light Rain
2:53 AM 62.1 °F 62.1 °F 100% 29.94 in 4.0 mi ENE 6.9 mph - 0.06 in Rain Rain
3:53 AM 62.1 °F 62.1 °F 100% 29.94 in 5.0 mi East 4.6 mph - 0.02 in   Overcast
4:53 AM 62.1 °F 62.1 °F 100% 29.94 in 6.0 mi North 4.6 mph - N/A   Overcast
5:26 AM 62.6 °F 62.6 °F 100% 29.98 in 6.0 mi Calm Calm - N/A   Overcast
5:53 AM 62.1 °F 62.1 °F 100% 29.94 in 6.0 mi North 6.9 mph - N/A   Mostly Cloudy
6:08 AM 62.6 °F 62.6 °F 100% 29.95 in 5.0 mi NNE 8.1 mph - N/A   Mostly Cloudy
6:15 AM 62.6 °F 62.6 °F 100% 29.95 in 5.0 mi NNE 8.1 mph - N/A   Mostly Cloudy
6:30 AM 60.8 °F 60.8 °F 100% 29.96 in 4.0 mi NNE 10.4 mph - N/A   Mostly Cloudy
6:40 AM 60.8 °F 60.8 °F 100% 29.95 in 2.0 mi NNE 8.1 mph - N/A   Overcast
6:53 AM 61.0 °F 61.0 °F 100% 29.93 in 1.0 mi NE 8.1 mph - N/A   Mostly Cloudy
7:15 AM 60.8 °F 60.8 °F 100% 29.97 in 2.0 mi NNE 6.9 mph - N/A   Overcast
7:53 AM 61.0 °F 61.0 °F 100% 29.98 in 2.0 mi East 4.6 mph - N/A   Overcast
8:03 AM 62.6 °F 62.6 °F 100% 30.00 in 4.0 mi ENE 3.5 mph - N/A   Overcast
8:15 AM 62.6 °F 60.8 °F 94% 30.01 in 5.0 mi Calm Calm - N/A   Overcast
8:53 AM 63.0 °F 61.0 °F 93% 29.99 in 5.0 mi Calm Calm - N/A   Overcast
9:08 AM 62.6 °F 60.8 °F 94% 30.02 in 6.0 mi SSE 4.6 mph - N/A   Overcast
9:25 AM 62.6 °F 60.8 °F 94% 30.02 in 7.0 mi Calm Calm - N/A   Overcast
9:53 AM 64.0 °F 61.0 °F 90% 29.99 in 8.0 mi SSE 3.5 mph - N/A   Overcast
10:16 AM 66.2 °F 60.8 °F 83% 30.01 in 9.0 mi Calm Calm - N/A   Mostly Cloudy
10:53 AM 66.0 °F 60.1 °F 81% 29.97 in 10.0 mi SE 8.1 mph - N/A   Mostly Cloudy
11:53 AM 69.1 °F 62.1 °F 78% 29.97 in 10.0 mi SSE 5.8 mph - N/A   Mostly Cloudy
12:37 PM 69.8 °F 62.6 °F 78% 29.98 in 10.0 mi SSE 9.2 mph - N/A   Mostly Cloudy
12:53 PM 72.0 °F 63.0 °F 73% 29.96 in 10.0 mi SSE 10.4 mph - N/A   Mostly Cloudy
1:53 PM 72.0 °F 61.0 °F 68% 29.94 in 10.0 mi SSE 8.1 mph 18.4 mph N/A   Mostly Cloudy
2:53 PM 73.9 °F 62.1 °F 66% 29.93 in 10.0 mi South 9.2 mph - N/A   Scattered Clouds
3:53 PM 75.0 °F 62.1 °F 64% 29.90 in 10.0 mi South 10.4 mph - N/A   Scattered Clouds
4:53 PM 75.0 °F 63.0 °F 66% 29.87 in 10.0 mi SSE 8.1 mph - N/A   Scattered Clouds
5:53 PM 75.0 °F 63.0 °F 66% 29.85 in 10.0 mi SSE 10.4 mph - N/A   Scattered Clouds
6:53 PM 73.4 °F 62.6 °F 69% 29.85 in 10.0 mi ESE 10.4 mph - N/A   Mostly Cloudy
7:53 PM 73.4 °F 62.6 °F 69% 29.82 in 10.0 mi East 10.4 mph - N/A   Overcast
8:25 PM 73.4 °F 62.6 °F 69% 29.81 in 10.0 mi ESE 11.5 mph - N/A Thunderstorm Thunderstorm
8:41 PM 73.4 °F 64.4 °F 73% 29.84 in 10.0 mi East 5.8 mph - 0.00 in Rain , Thunderstorm Light Thunderstorms and Rain
8:53 PM 70.0 °F 66.0 °F 87% 29.83 in 5.0 mi ENE 4.6 mph - 0.01 in Rain , Thunderstorm Thunderstorms and Rain
9:33 PM 69.8 °F 68.0 °F 94% 29.87 in 1.5 mi North 9.2 mph 17.3 mph 0.19 in Rain , Thunderstorm Heavy Thunderstorms and Rain
9:37 PM 66.2 °F 66.2 °F 100% 29.87 in 0.8 mi North 12.7 mph 23.0 mph 0.36 in Rain , Thunderstorm Heavy Thunderstorms and Rain
9:42 PM 64.4 °F 64.4 °F 100% 29.89 in 1.5 mi North 11.5 mph 23.0 mph 0.51 in Rain , Thunderstorm Heavy Thunderstorms and Rain
9:53 PM 64.0 °F 64.0 °F 100% 29.88 in 4.0 mi NW 9.2 mph - 0.59 in Rain , Thunderstorm Heavy Thunderstorms and Rain
10:13 PM 62.6 °F 62.6 °F 100% 29.85 in 6.0 mi East 13.8 mph - 0.15 in Rain , Thunderstorm Thunderstorms and Rain
10:31 PM 64.4 °F 64.4 °F 100% 29.86 in 8.0 mi East 17.3 mph 25.3 mph 0.25 in Rain , Thunderstorm Light Thunderstorms and Rain
10:53 PM 64.0 °F 64.0 °F 100% 29.85 in 10.0 mi SW 9.2 mph - 0.26 in Thunderstorm Thunderstorm
11:36 PM 62.6 °F 60.8 °F 94% 29.75 in 10.0 mi ESE 17.3 mph 21.9 mph 0.00 in Rain Light Rain
11:48 PM 62.6 °F 60.8 °F 94% 29.76 in 10.0 mi East 9.2 mph - 0.00 in   Overcast
11:53 PM 63.0 °F 61.0 °F 93% 29.75 in 10.0 mi East 3.5 mph - 0.00 in   Overcast